Simultaneous Nadir Overpasses (SNOs) Predictions

Prediction of SNOs between NOAA-19 and NPP Satellite Orbit:

Table of predicted SNOs for the next 14.0 days since TLE Epoch: 10/3/2014
Index Date (NOAA-19) Time (NOAA-19) Lat,Lon (NOAA-19) SZA (NOAA-19 ) Date (NPP) Time (NPP) Lat,Lon (NPP) SZA (NPP ) Distance(km) Time Diff (sec)
1 10/09/2014 21:58:04 -80.97, -20.88 89.60 10/09/2014 21:59:11 -80.97, -20.93 89.62 0.76 67
2 10/09/2014 22:49:10 80.96, 146.62 90.39 10/09/2014 22:49:56 80.97, 146.45 90.39 3.04 46
3 10/09/2014 23:40:06 -80.96, -45.88 89.64 10/09/2014 23:40:40 -80.96, -45.93 89.65 0.80 34
4 10/10/2014 00:31:12 80.95, 121.62 90.34 10/10/2014 00:31:25 80.95, 121.45 90.36 3.04 13
5 10/10/2014 01:22:09 -80.95, -71.26 89.63 10/10/2014 01:22:10 -80.96, -71.30 89.62 0.81 1
6 10/10/2014
